Погода в Дзарджане

Погода в Дзарджане : погода сейчас, прогноз погоды и архив. Всё, что Вы хотите узнать о погоде в Дзарджане!

Поиск расширенной информации на нашем сайте:

Другие новости

Новости СМИ2

Главная страница сайта

Новости сайта

03.07.2017

Напоминаем, что на нашем специализированном сайте Метеоцентр.Азия вы можете получить высокодетализированные автоматические прогнозы погоды по пунктам России, СНГ и мира в авиационном формате (включающие направление и скорость ветра, видимость, явления погоды, количество и форму облачности, нижнюю и верхнюю границу облачности).


Погода в Дзарджане - сегодня

Время (UTC), дата Ветер
(°,м/с) 
Видим.   Явления Облачность Т
(°С)
Тd
(°С)
f(%) Тe
(°С)
Pmin
(гПа)
dP
(гПа)
Po
(мм)
O2
(г/м3)
Тmin Tmax R s Состояние
почвы
00 23.07.17 тихо ()   20000 м  {дождь}  10/0 средняя 
[As op]
+14.5 +13.4 93 +21  1004.8  -0.9  750  284  +13.3      влажная 
03 23.07.17 050 (СВ) 20000 м  {дождь}  10/10 600 м 
[Ns]
+15.3 +14.6 96 +24  1004.8  750  283           
06 23.07.17 050 (СВ) 20000 м  {дождь}  10/10 600 м 
[Ns]
+13.8 +11 83 +16  1006.8  752  286           
09 23.07.17 050 (СВ) 20000 м    8/5 600 м средняя 
[Sc|Ac trans]
+15.3 +8.1 62 +16  1007  0.2  752  285           
12 23.07.17 050 (СВ) 20000 м    8/0 средняя 
[Ac trans]
+11.4 +3.8 59 +11  1009.9  2.8  754  291    +15.6  0.9     
15 23.07.17 050 (СВ) 20000 м    10/10 600 м 
[Sc]
+8.8 +3.7 70 +8  1001.1  1.1  755  294           
18 23.07.17 090 (В) 20000 м    8/8 600 м 
[Sc]
+6.5 +3.4 81 +6  1011.2  0.1  755  297           
21 23.07.17 050 (СВ) 20000 м    10/3 600 м верхняя 
[Sc|Ci fib]
+7.1 +3.1 76 +7  1011.7  0.6  755  296           
00 24.07.17 050 (СВ) 20000 м    10/3 600 м верхняя 
[Sc|Ci fib]
+8.9 +2.5 64 +8  1012.3  0.6  756  295  +6.1        влажная 
03 24.07.17 020 (С) 20000 м    8/8 600 м 
[Sc]
+10.6 +2.7 58 +10  1012.3  756  293           
06 24.07.17 020 (С) 20000 м    3/3 600 м 
[Sc]
+13 +2.5 49 +13  1012.2  756  290           
09 24.07.17 020 (С) 20000 м    3/0 верхняя 
[Ci fib]
+13.8 +3.4 49 +14  1010.9  -1.3  755  289           
12 24.07.17 020 (С) 20000 м    3/0 
[]
+12.2 +3.7 56 +13  1010  -1  754  290    +14.1       
15 24.07.17 тихо ()   20000 м    ясно 
+8.6 +5 78 +9  1009.4  -0.6  754  294           
18 24.07.17 тихо ()   20000 м    4/0 верхняя 
[Ci fib]
+4.3 +3.6 95 +4  1009.4  754  298           
00 25.07.17 270 (З) 20000 м    3/0 верхняя 
[Ci fib]
+1.1 +5.4 100 1008.7  0.2  753  301  +3.4        сухая 
03 25.07.17 270 (З) 20000 м    3/0 верхняя 
[Ci fib]
+14.5 +5.4 54 +15  1007.3  -1.3  752  287           
06 25.07.17 270 (З) 20000 м    3/0 верхняя 
[Ci fib]
+17.3 +5 44 +18  1005.8  -1.5  751  284           
09 25.07.17 270 (З) 20000 м    9/0 средняя 
[Ac trans]
+18.5 +8.5 52 +20  1005.1  -0.6  750  282           
12 25.07.17 270 (З) 20000 м    8/0 средняя 
[Ac As]
+16.9 +9.2 60 +18  1004  -1.2  750  283    +19.2       
15 25.07.17 270 (З) 20000 м    8/0 средняя 
[Ac As]
+14.3 +5.7 56 +15  1002.8  -1.2  749  286           
18 25.07.17 270 (З) 20000 м    10/0 средняя 
[Ac As]
+13.1 +5.7 61 +14  1002.7  -0.1  749  287           
21 25.07.17 270 (З) 20000 м  в посл. час снег{дождь}  10/0 средняя 
[Ac As]
+10.4 +8.6 89 +12  1001.7  -1.1  748  289           
00 26.07.17 230 (ЮЗ) 20000 м  {дождь}  10/10 600 м 
[Ns]
+13.6 +10.8 83 +16  1001.6  748  285  +8.9      влажная 
03 26.07.17 360 (С) 20000 м    10/10 600 м 
[Ns]
+13.6 +10.5 82 +16  1002.6  749  285           
Время (UTC), дата Ветер
(°,м/с) 
Видим.   Явления Облачность Т
(°С)
Тd
(°С)
f(%) Тe
(°С)
Pmin
(гПа)
dP
(гПа)
Po
(мм)
O2
(г/м3)
Тmin Tmax R s Состояние
почвы

Для получения пояснительной информации подведите курсор к названию столбца.

ПОГОДА в Дзарджане - архив

Всё, что Вы хотите узнать о погоде в Дзарджане - удобно и подробно!

Выберите нужную дату (начиная с 1 января 2015* года) и нажмите кнопку "Найти".
Будут отображены архивные сводки погоды по пункту Дзарджан, начиная с указанной даты.


Отображать данные в формате CSV (для использования в таблицах Excel)


Внимание! Наш архив погоды предназначен исключительно для личного некоммерческого использования в познавательных целях. Если Вам необходимы официальные справки о состоянии погоды (для производственных, юридических, коммерческих и т.п. целей), обращайтесь в органы Росгидромета.

*Примечание: данная дата относится к архиву по метеостанциям СССР (Россия, СНГ, Балтия).
Архив по метеостанциям Зарубежной Европы и Азии (кроме Китая) хранится 10 дней, по другим регионам земного шара (Китай, Африка, Америка, Австралия, Океания) - 1 день.

Дзарджан - район местоположения метеостанции


Название, широта, долгота, высота метеостанции:
Дзарджан 68.7°ш. 124°д. 39 м над ур. моря [Российская Федерация]

Дополнительная информация

В oтличие oт бoльшинства пoгoдных сайтoв мы публикуем пoдрoбную метеoинфoрмацию в детальнoм прoфессиoнальнoм фoрмате.

Характеристики температуры и влажнoсти вoздуха измеряются на высoте 2 м в тени вдали oт зданий и деревьев.
Скoрoсть ветра измеряется на высoте 10 м (на урoвне рoста челoвека скoрoсть ветра ниже в 1.5-2 раза). Если метеoстанция нахoдится в гoрoде или в лесу, тo скoрoсть ветра занижена на 2-4 м/с пo сравнению с oткрытым местoм. Скoрoсть ветра над акватoриями крупных рек и oзёр, а также на вершинах хoлмoв на 2-5 м/с выше, чем в oбычных услoвиях.
Атмoсфернoе давление в разных тoчках местнoсти мoжет значительнo oтличаться oт давления на метеoстанции, в зависимoсти oт услoвий рельефа (при пoдъёме на 10 м давление пoнижается примернo на 1 мм рт.ст.).